Hourly Weather Smolan

Today, 29 October, Thursday

Time Temperature Precipitation Wind Pressure Humidity
00:00 +9°C° 0.3 mm 1 mps 654 mmHg 91%
01:00 +9°C° 0.3 mm 1 mps 654 mmHg 91%
02:00 +9°C° 0.3 mm 1 mps 654 mmHg 92%
03:00 +9°C° 0.6 mm 1 mps 653 mmHg 91%
04:00 +9°C° 0.6 mm 1 mps 653 mmHg 91%
05:00 +9°C° 0.6 mm 1 mps 653 mmHg 91%
06:00 +9°C° 0.3 mm 1 mps 654 mmHg 90%
07:00 +9°C° 0.3 mm 1 mps 654 mmHg 89%
08:00 +9°C° 0.3 mm 1 mps 654 mmHg 88%
09:00 +10°C° 0.1 mm 1 mps 655 mmHg 84%
10:00 +11°C° 0.1 mm 1 mps 655 mmHg 80%
11:00 +12°C° 0.1 mm 1 mps 656 mmHg 76%
12:00 +12°C° 0.1 mm 1 mps 656 mmHg 75%
13:00 +13°C° 0.1 mm 1 mps 656 mmHg 74%
14:00 +13°C° 0.1 mm 1 mps 655 mmHg 72%
15:00 +12°C° 0.1 mm 1 mps 655 mmHg 76%
16:00 +12°C° 0.1 mm 1 mps 655 mmHg 80%
17:00 +11°C° 0.1 mm 1 mps 655 mmHg 84%
18:00 +10°C° 0 mm 1 mps 654 mmHg 87%
19:00 +8°C° 0 mm 0 mps 654 mmHg 90%
20:00 +8°C° 0 mm 0 mps 654 mmHg 93%
21:00 +7°C° 0 mm 0 mps 654 mmHg 93%
22:00 +8°C° 0 mm 1 mps 655 mmHg 92%
23:00 +8°C° 0 mm 1 mps 655 mmHg 92%

Tomorrow, 30 October, Friday

Time Temperature Precipitation Wind Pressure Humidity
00:00 +8°C° 0 mm 1 mps 654 mmHg 91%
01:00 +7°C° 0 mm 1 mps 654 mmHg 91%
02:00 +7°C° 0 mm 1 mps 654 mmHg 90%
03:00 +7°C° 0.1 mm 1 mps 654 mmHg 89%
04:00 +8°C° 0.1 mm 1 mps 654 mmHg 88%
05:00 +8°C° 0.1 mm 1 mps 654 mmHg 87%
06:00 +8°C° 0.2 mm 1 mps 655 mmHg 86%
07:00 +8°C° 0.2 mm 1 mps 655 mmHg 85%
08:00 +8°C° 0.2 mm 1 mps 655 mmHg 84%
09:00 +8°C° 0.2 mm 2 mps 656 mmHg 78%
10:00 +9°C° 0.2 mm 2 mps 656 mmHg 72%
11:00 +10°C° 0.2 mm 2 mps 657 mmHg 66%
12:00 +10°C° 0.4 mm 2 mps 656 mmHg 66%
13:00 +10°C° 0.4 mm 3 mps 656 mmHg 66%
14:00 +9°C° 0.4 mm 3 mps 656 mmHg 66%
15:00 +8°C° 0.3 mm 3 mps 655 mmHg 67%
16:00 +7°C° 0.3 mm 3 mps 655 mmHg 69%
17:00 +5°C° 0.3 mm 3 mps 655 mmHg 70%
18:00 +4°C° 0 mm 3 mps 655 mmHg 72%
19:00 +4°C° 0 mm 2 mps 655 mmHg 74%
20:00 +3°C° 0 mm 2 mps 655 mmHg 76%
21:00 +2°C° 0 mm 2 mps 656 mmHg 77%
22:00 +2°C° 0 mm 2 mps 656 mmHg 77%
23:00 +2°C° 0 mm 2 mps 656 mmHg 78%

Day after tomorrow, 31 October, Saturday

Time Temperature Precipitation Wind Pressure Humidity
00:00 +2°C° 0 mm 2 mps 656 mmHg 77%
01:00 +1°C° 0 mm 2 mps 656 mmHg 77%
02:00 +1°C° 0 mm 2 mps 656 mmHg 77%
03:00 +1°C° 0 mm 2 mps 656 mmHg 74%
04:00 +1°C° 0 mm 2 mps 656 mmHg 72%
05:00 +1°C° 0 mm 2 mps 656 mmHg 70%
06:00 +1°C° 0 mm 2 mps 656 mmHg 65%
07:00 +2°C° 0 mm 2 mps 656 mmHg 60%
08:00 +4°C° 0 mm 1 mps 656 mmHg 54%
09:00 +6°C° 0 mm 1 mps 657 mmHg 52%
10:00 +9°C° 0 mm 1 mps 658 mmHg 50%
11:00 +11°C° 0 mm 1 mps 658 mmHg 47%
12:00 +11°C° 0 mm 1 mps 658 mmHg 48%
13:00 +12°C° 0 mm 1 mps 657 mmHg 48%
14:00 +12°C° 0 mm 2 mps 657 mmHg 49%
15:00 +11°C° 0 mm 1 mps 656 mmHg 54%
16:00 +10°C° 0 mm 1 mps 656 mmHg 59%
17:00 +8°C° 0 mm 1 mps 655 mmHg 64%
18:00 +8°C° 0 mm 1 mps 655 mmHg 67%
19:00 +7°C° 0 mm 1 mps 655 mmHg 69%
20:00 +6°C° 0 mm 1 mps 655 mmHg 71%
21:00 +7°C° 0 mm 1 mps 655 mmHg 71%
22:00 +7°C° 0 mm 1 mps 655 mmHg 71%
23:00 +7°C° 0 mm 1 mps 655 mmHg 71%

1 November, Sunday

Time Temperature Precipitation Wind Pressure Humidity
00:00 +7°C° 0.1 mm 1 mps 654 mmHg 74%
01:00 +7°C° 0.1 mm 1 mps 654 mmHg 78%
02:00 +7°C° 0.1 mm 1 mps 654 mmHg 81%
03:00 +6°C° 0.1 mm 1 mps 654 mmHg 83%
04:00 +6°C° 0.1 mm 1 mps 654 mmHg 84%
05:00 +6°C° 0.1 mm 1 mps 654 mmHg 86%
06:00 +6°C° 0.1 mm 1 mps 654 mmHg 85%
07:00 +6°C° 0.1 mm 1 mps 655 mmHg 85%
08:00 +7°C° 0.1 mm 1 mps 655 mmHg 84%
09:00 +8°C° 0.1 mm 1 mps 656 mmHg 76%
10:00 +8°C° 0.1 mm 2 mps 656 mmHg 69%
11:00 +9°C° 0.1 mm 2 mps 657 mmHg 61%
12:00 +9°C° 0.1 mm 2 mps 657 mmHg 60%
13:00 +9°C° 0.1 mm 2 mps 657 mmHg 59%
14:00 +9°C° 0.1 mm 2 mps 657 mmHg 57%
15:00 +8°C° 0.2 mm 2 mps 657 mmHg 63%
16:00 +8°C° 0.2 mm 1 mps 656 mmHg 68%
17:00 +7°C° 0.2 mm 1 mps 656 mmHg 74%
18:00 +5°C° 0 mm 1 mps 656 mmHg 76%
19:00 +4°C° 0 mm 1 mps 656 mmHg 79%
20:00 +3°C° 0 mm 1 mps 656 mmHg 82%
21:00 +3°C° 0 mm 1 mps 656 mmHg 82%
22:00 +3°C° 0 mm 1 mps 656 mmHg 81%
23:00 +3°C° 0 mm 1 mps 656 mmHg 81%

2 November, Monday

Time Temperature Precipitation Wind Pressure Humidity
00:00 +2°C° 0 mm 1 mps 656 mmHg 80%
01:00 +2°C° 0 mm 1 mps 656 mmHg 80%
02:00 +2°C° 0 mm 1 mps 656 mmHg 79%
03:00 +2°C° 0 mm 1 mps 656 mmHg 79%
04:00 +2°C° 0 mm 1 mps 656 mmHg 79%
05:00 +2°C° 0 mm 1 mps 656 mmHg 80%
06:00 +2°C° 0 mm 1 mps 656 mmHg 75%
07:00 +3°C° 0 mm 1 mps 656 mmHg 71%
08:00 +3°C° 0 mm 1 mps 657 mmHg 67%
09:00 +6°C° 0 mm 1 mps 657 mmHg 58%
10:00 +8°C° 0 mm 1 mps 658 mmHg 49%
11:00 +10°C° 0 mm 1 mps 658 mmHg 40%
12:00 +11°C° 0 mm 1 mps 658 mmHg 40%
13:00 +10°C° 0 mm 2 mps 658 mmHg 39%
14:00 +12°C° 0 mm 2 mps 658 mmHg 39%
15:00 +9°C° 0 mm 2 mps 657 mmHg 47%
16:00 +8°C° 0 mm 1 mps 656 mmHg 56%
17:00 +7°C° 0 mm 1 mps 656 mmHg 64%
18:00 +6°C° 0 mm 1 mps 655 mmHg 67%
19:00 +5°C° 0 mm 1 mps 655 mmHg 69%
20:00 +4°C° 0 mm 1 mps 655 mmHg 71%
21:00 +4°C° 0 mm 1 mps 655 mmHg 70%
22:00 +4°C° 0 mm 1 mps 655 mmHg 69%
23:00 +3°C° 0 mm 1 mps 655 mmHg 68%

3 November, Tuesday

Time Temperature Precipitation Wind Pressure Humidity
00:00 +3°C° 0 mm 1 mps 654 mmHg 69%
01:00 +3°C° 0 mm 1 mps 654 mmHg 69%
02:00 +3°C° 0 mm 1 mps 654 mmHg 69%
03:00 +3°C° 0 mm 1 mps 654 mmHg 69%
04:00 +3°C° 0 mm 1 mps 654 mmHg 69%
05:00 +3°C° 0 mm 1 mps 654 mmHg 69%
06:00 +3°C° 0 mm 1 mps 654 mmHg 67%
07:00 +4°C° 0 mm 1 mps 654 mmHg 65%
08:00 +5°C° 0 mm 1 mps 655 mmHg 63%
09:00 +7°C° 0 mm 1 mps 655 mmHg 58%
10:00 +9°C° 0 mm 1 mps 656 mmHg 53%
11:00 +11°C° 0 mm 1 mps 657 mmHg 48%
12:00 +11°C° 0 mm 1 mps 657 mmHg 50%
13:00 +10°C° 0 mm 2 mps 656 mmHg 52%
14:00 +12°C° 0 mm 2 mps 656 mmHg 53%
15:00 +10°C° 0.1 mm 1 mps 656 mmHg 62%
16:00 +9°C° 0.1 mm 1 mps 655 mmHg 70%
17:00 +8°C° 0.1 mm 1 mps 655 mmHg 79%
18:00 +6°C° 0 mm 0 mps 655 mmHg 82%
19:00 +6°C° 0 mm 0 mps 655 mmHg 85%
20:00 +5°C° 0 mm 0 mps 655 mmHg 88%
21:00 +5°C° 0 mm 0 mps 655 mmHg 89%
22:00 +5°C° 0 mm 0 mps 655 mmHg 90%
23:00 +4°C° 0 mm 0 mps 655 mmHg 90%
Show more